Theta_e
321 323 326 328 329 331 332 332 331 332 333 333 334 336 337 335 335 334 336 337 337 337 337 337 335 334 335 335 333 333 332 333 332 333 334 335 335 335 336 336 336 337 337 337 336 334 333 334 335 335 336 336 336 334 333 333 333 332 330 330 328 328 328 330 331 331 328 327 328 328 329 332 331 331 330 332 332 330 328 327 328 329 330 332 334
320 323 325 327 327 330 331 332 332 330 332 333 333 336 337 336 335 335 334 336 337 339 338 338 338 338 336 333 332 331 331 330 329 331 332 333 334 335 335 336 335 335 336 336 335 334 334 334 335 335 335 334 333 333 333 332 333 333 332 329 331 329 328 330 330 330 326 326 325 324 325 328 328 330 329 328 329 326 326 327 328 327 326 327 330
320 323 325 326 328 329 330 331 332 333 332 332 334 335 336 334 335 335 334 335 336 338 338 336 335 335 336 332 330 325 325 328 327 328 330 332 333 335 335 336 336 335 336 336 336 335 335 334 333 334 333 332 332 332 332 332 333 332 332 329 326 329 329 330 330 331 326 326 330 326 322 322 325 329 328 327 327 328 328 326 326 325 325 325 328
319 321 323 325 327 329 330 330 331 332 332 332 333 334 334 334 335 334 333 333 334 337 336 334 332 331 331 330 329 330 325 325 328 328 329 330 329 331 334 335 336 336 336 337 337 335 335 334 334 334 334 334 333 331 332 331 332 332 332 330 329 324 324 325 330 329 331 327 320 321 322 321 315 321 322 325 328 325 323 322 323 321 321 322 324
320 321 324 324 326 328 329 330 331 330 331 332 332 333 333 333 333 333 331 331 333 333 332 331 329 329 327 327 327 325 326 326 327 326 329 329 328 329 329 332 335 335 336 337 336 335 334 335 334 334 333 333 333 332 331 330 331 332 333 332 331 328 324 325 326 329 331 330 326 319 317 319 318 321 323 321 326 320 319 318 321 320 321 322 322
320 321 323 324 326 328 329 330 329 330 331 333 334 334 332 330 330 330 329 330 332 332 331 330 330 328 327 326 324 325 322 323 323 323 324 326 323 325 325 328 332 335 335 336 335 333 332 333 333 333 333 333 333 333 331 330 330 331 333 333 332 333 330 325 323 327 329 329 331 330 328 320 320 321 321 314 322 324 318 316 316 317 318 317 318
319 321 322 323 325 326 328 329 330 331 326 324 323 322 321 322 325 326 327 329 332 331 330 331 330 330 330 328 327 326 322 321 322 324 324 321 324 326 325 327 330 334 335 336 336 335 334 333 334 334 334 333 333 332 331 331 329 330 332 333 332 331 330 326 324 324 326 327 327 328 327 328 330 322 318 318 314 316 316 315 314 314 315 315 314
318 319 321 323 324 326 326 328 325 321 322 324 323 322 319 318 321 323 325 325 328 330 330 331 329 328 327 326 326 325 324 322 323 323 323 323 324 324 326 327 327 331 334 334 336 335 335 334 334 334 333 333 331 331 331 330 331 331 331 332 332 332 331 328 325 325 324 323 327 326 326 328 329 328 324 319 315 309 308 312 315 316 316 316 315
318 318 320 322 323 325 326 323 321 322 321 322 323 322 321 321 322 323 322 323 324 326 327 328 329 329 328 326 323 323 324 323 323 322 321 324 323 324 325 325 326 328 329 332 333 334 334 334 335 334 334 333 331 330 332 330 330 330 330 330 332 332 333 331 327 325 326 323 324 325 327 326 326 327 327 323 312 307 308 309 310 314 314 315 315
318 319 320 321 323 324 324 322 322 321 321 322 323 324 323 324 323 320 319 321 323 325 326 327 327 327 327 327 325 323 323 323 323 321 322 324 323 323 324 325 325 327 327 328 329 330 332 333 333 333 333 331 329 330 329 330 330 331 331 332 333 331 331 330 328 327 327 327 327 325 322 320 317 315 314 310 313 311 307 309 312 311 307 310 315
316 317 319 319 321 323 324 322 323 325 325 323 322 321 320 320 320 319 319 319 321 324 325 324 325 327 327 327 327 324 324 324 321 321 320 322 322 322 323 323 325 324 325 326 325 327 328 328 328 328 328 327 326 327 328 327 328 328 329 330 331 330 330 329 327 327 328 326 322 321 319 318 316 314 312 311 308 309 309 309 312 311 308 308 311
316 316 315 317 318 320 323 323 325 326 327 324 321 320 320 320 320 320 319 321 321 322 323 323 323 324 326 327 326 326 325 323 323 321 321 321 322 321 321 323 323 323 324 325 325 325 326 325 325 325 325 326 326 326 325 325 325 326 327 328 328 328 329 328 327 325 323 321 320 319 318 317 315 312 310 311 310 308 310 310 309 309 309 307 309
315 315 316 317 318 319 320 323 325 326 324 323 322 320 319 319 319 319 319 320 322 323 322 323 323 323 324 325 325 325 325 325 324 322 322 321 321 322 322 322 322 323 324 324 323 324 325 325 324 324 324 324 324 323 322 322 324 325 326 326 326 326 325 324 321 321 321 317 317 318 315 313 312 314 313 311 313 313 312 309 309 311 308 307 307
314 315 315 317 318 318 319 320 322 324 323 322 322 321 320 319 319 319 318 318 319 321 324 323 323 323 324 324 324 324 323 324 324 322 321 321 322 323 323 323 323 325 324 323 321 321 322 323 323 323 322 321 321 321 321 321 323 323 324 323 322 320 320 321 319 320 320 320 319 315 315 314 314 315 314 313 312 310 309 309 309 310 309 304 306
314 314 315 317 320 323 323 320 319 321 322 322 322 322 322 320 319 319 318 317 319 320 322 322 322 322 323 323 323 323 322 322 322 322 321 320 319 321 322 324 324 323 322 321 320 321 321 322 322 321 320 320 320 320 320 320 321 319 320 320 318 318 319 319 318 318 317 316 319 316 315 314 313 313 314 313 312 313 311 311 309 305 305 306 304
314 315 317 320 323 323 328 320 318 316 320 322 322 323 322 319 320 321 320 319 319 320 321 322 322 323 322 321 321 322 322 322 320 319 318 318 319 319 319 322 322 321 320 320 319 320 321 320 319 319 318 319 319 319 319 319 320 319 317 318 316 316 318 318 317 317 317 318 317 317 314 312 315 313 313 314 313 314 313 312 313 309 305 303 305
314 315 317 322 324 322 321 319 317 314 316 320 321 323 323 321 321 322 323 322 320 321 321 324 325 323 323 324 323 323 323 322 322 321 320 318 316 317 319 320 321 321 320 320 320 320 320 320 320 318 318 318 319 318 317 318 319 319 318 317 315 316 316 315 316 315 316 315 315 317 314 313 313 315 314 314 315 315 314 314 312 311 309 304 302
310 312 313 313 314 316 316 315 313 313 316 319 320 322 324 324 323 323 324 322 322 322 323 325 324 323 322 322 323 324 323 320 321 322 320 318 315 314 317 319 321 321 321 320 320 320 320 318 319 319 319 319 319 318 317 317 318 316 316 314 314 315 313 314 315 314 315 315 315 314 314 312 315 315 314 316 316 316 314 313 312 312 312 308 307
310 311 312 312 314 315 317 317 315 314 316 319 322 322 323 324 324 324 323 323 323 323 323 323 323 323 322 322 321 321 323 322 323 323 318 316 316 315 316 320 320 320 320 320 320 320 320 319 319 319 319 319 318 318 317 317 318 316 316 313 314 315 313 313 314 315 315 316 315 314 315 313 316 316 316 316 315 315 314 313 312 312 312 312 310
309 310 311 312 313 315 316 317 316 316 316 318 320 322 322 322 322 322 323 323 323 323 323 323 323 322 323 323 319 320 321 320 321 321 319 317 317 315 316 317 320 320 322 321 320 319 320 319 319 318 319 319 318 318 317 316 317 317 316 314 315 315 313 312 312 314 312 315 314 313 314 313 314 313 314 315 314 315 315 312 313 312 311 312 310
308 308 309 310 311 313 314 316 317 318 319 320 320 322 322 321 321 321 321 321 321 322 322 322 323 322 324 324 323 322 321 321 320 320 319 319 318 316 316 318 317 321 321 321 319 319 319 319 318 318 318 319 318 318 318 317 317 316 317 316 315 314 312 313 314 313 313 314 311 311 312 313 314 313 312 313 312 312 314 313 313 311 310 311 309
306 306 307 306 307 308 309 312 316 318 318 318 319 320 320 321 320 320 321 320 321 321 321 322 322 324 324 325 324 324 323 323 322 321 320 319 319 318 317 316 316 318 320 319 318 320 320 318 317 317 318 317 317 317 317 317 316 317 317 317 317 314 313 313 314 312 313 313 315 311 310 311 312 311 312 309 310 310 309 309 309 310 308 308 310
303 303 303 304 304 305 305 306 307 310 313 317 319 319 319 319 320 320 320 320 321 321 321 322 322 324 325 325 325 324 323 325 323 321 320 319 320 320 318 318 317 317 318 320 319 318 317 317 316 316 316 316 316 316 317 316 316 317 317 318 318 316 315 314 314 312 310 312 313 312 311 312 312 312 313 311 312 310 309 308 309 309 308 306 304
302 302 302 302 302 303 303 304 305 307 309 311 315 318 318 319 319 319 320 321 320 321 320 320 321 322 324 324 324 324 324 324 323 323 321 321 321 320 319 318 317 317 316 318 319 318 317 316 316 315 315 315 316 317 317 316 315 315 315 316 318 317 317 316 314 313 311 312 312 312 312 313 312 312 311 311 311 311 310 309 309 309 307 304 306
300 300 300 300 300 299 300 301 301 303 305 309 311 313 318 319 319 319 320 321 321 321 320 319 319 319 320 322 323 323 323 323 322 323 323 323 322 322 321 319 319 318 318 318 318 318 317 316 317 316 316 316 317 318 317 316 317 317 316 316 315 316 318 317 317 316 314 314 314 313 313 312 313 311 313 311 311 311 309 310 308 307 305 305 306
300 300 300 300 300 300 300 300 300 301 302 304 307 310 313 315 316 319 319 320 320 321 320 319 319 318 318 319 320 322 322 322 322 322 322 322 322 322 321 321 318 318 319 319 318 318 317 317 318 318 318 319 319 320 319 319 319 319 319 318 317 316 316 316 317 316 315 316 316 314 315 314 313 313 312 313 313 312 310 310 308 306 304 305 306
300 300 300 301 300 300 301 301 301 301 301 301 302 304 308 312 314 315 317 320 320 320 320 319 318 318 317 318 318 319 321 322 322 322 323 322 322 322 322 320 320 320 319 319 319 319 320 319 319 320 320 320 320 320 320 321 320 320 320 319 319 318 317 317 317 316 316 316 316 316 316 316 315 314 314 314 313 313 312 310 310 309 304 305 306
300 300 300 300 300 301 301 302 302 301 301 302 302 302 303 305 307 311 315 317 318 320 320 319 318 318 317 318 319 320 320 321 322 322 322 322 322 322 321 321 320 320 320 319 319 320 322 322 322 321 321 321 317 316 317 318 318 320 321 321 321 320 318 318 319 317 317 316 316 316 316 316 315 316 316 316 315 313 312 311 311 308 307 306 306
298 298 299 300 299 300 301 301 301 302 302 302 302 302 303 304 304 306 311 313 316 319 320 319 319 318 318 319 320 320 321 321 320 321 321 321 321 321 321 321 321 321 321 321 321 321 321 320 320 321 319 316 315 315 316 316 316 317 319 319 320 319 318 318 319 320 319 318 317 317 316 316 316 312 307 309 310 309 312 310 309 308 307 306 306
297 297 298 299 300 300 300 301 301 301 301 301 302 302 302 302 302 303 305 308 315 317 318 319 318 319 320 320 320 321 320 321 321 322 321 321 321 321 321 321 319 319 321 322 320 320 320 319 318 318 318 316 315 315 311 307 306 315 318 317 318 319 319 319 319 319 320 320 319 319 318 311 307 305 302 299 298 300 304 310 310 308 305 306 306
295 296 297 298 299 300 300 300 300 301 301 302 302 302 303 303 302 302 302 304 311 315 317 317 318 318 319 319 320 320 321 320 321 321 321 319 318 318 318 319 319 319 319 320 321 319 319 318 316 315 314 314 316 314 305 301 300 300 309 317 318 320 321 320 320 320 320 321 322 320 320 315 309 305 306 298 297 296 296 297 300 301 302 307 306
293 294 295 296 297 298 299 300 300 300 300 301 302 302 302 302 303 302 302 303 305 307 310 312 314 315 317 318 319 319 319 319 320 320 319 319 319 318 318 318 317 317 317 318 319 319 319 319 318 318 318 318 319 306 300 299 299 298 299 312 317 318 319 320 320 319 319 319 319 320 320 319 317 316 315 312 302 296 295 294 294 294 296 295 293
292 293 293 294 295 296 298 299 300 299 299 300 301 302 302 302 303 303 304 304 304 304 305 305 307 310 313 316 318 318 318 318 318 319 319 319 318 317 318 318 318 318 319 318 318 319 320 320 320 318 317 319 319 300 299 298 297 294 293 299 312 314 315 317 318 318 317 318 318 318 318 318 316 308 308 312 313 308 296 293 293 294 292 291 290
293 293 293 294 295 296 297 298 299 299 299 301 302 302 302 304 304 304 304 304 304 304 305 304 305 305 308 313 316 318 318 318 318 319 319 318 318 318 319 319 319 319 318 318 319 320 320 320 319 319 319 319 319 300 296 295 294 293 293 296 312 314 315 314 313 314 316 316 316 315 315 315 315 313 314 313 312 310 305 302 301 304 304 300 294
293 293 294 294 295 296 297 297 297 298 299 299 299 301 302 301 302 302 303 305 305 305 305 306 305 305 305 308 313 316 317 317 318 318 318 318 319 319 318 318 318 317 318 318 318 319 319 319 319 319 318 318 318 296 294 293 294 295 293 299 315 312 311 311 310 310 310 311 312 313 313 313 311 310 309 307 309 308 306 305 305 304 304 303 303
292 293 294 294 294 295 296 297 298 297 297 297 298 299 300 300 301 301 301 303 304 305 304 306 305 306 305 305 307 311 315 316 315 316 316 317 317 317 317 318 318 318 318 318 319 319 318 318 318 319 318 317 314 293 294 294 294 294 293 311 313 313 311 310 309 308 308 309 309 310 310 309 308 307 296 292 299 306 305 304 303 303 301 299 296
293 293 294 295 295 295 296 297 297 297 297 297 298 298 299 300 299 299 300 301 302 303 303 304 304 305 305 305 305 306 308 312 313 314 315 316 316 316 317 318 317 317 316 316 318 317 318 318 317 318 318 317 310 297 293 293 293 292 297 312 310 309 308 307 306 306 307 308 308 308 308 307 306 305 293 291 292 298 304 304 303 302 301 300 298
293 294 294 295 295 296 296 296 296 297 296 297 297 298 298 299 299 299 299 299 300 300 301 302 302 303 304 305 306 306 307 308 309 311 313 315 317 317 317 315 315 314 314 315 316 316 317 317 316 317 317 314 310 298 292 292 292 291 302 312 310 309 307 306 304 304 305 305 301 298 303 307 306 303 290 291 293 301 305 304 303 302 301 300 298
293 293 293 293 294 294 295 295 295 295 295 296 296 297 297 297 298 298 299 299 299 299 299 300 301 303 304 304 305 306 307 307 307 308 310 312 313 313 314 313 314 314 314 312 311 312 312 312 312 313 307 311 309 300 291 292 292 292 304 313 310 309 307 306 304 303 303 303 301 297 294 298 300 295 289 290 293 302 306 305 304 303 301 299 298
293 293 293 293 294 293 293 293 293 294 295 295 295 295 296 296 297 297 298 298 298 298 299 300 301 302 303 304 305 305 308 308 309 308 306 307 309 310 310 310 311 312 312 312 310 310 308 308 308 308 308 310 309 307 300 291 293 293 298 311 310 308 306 305 305 303 302 301 301 299 295 289 289 289 289 289 290 294 304 304 304 302 300 297 298
291 291 292 292 292 292 291 292 292 293 293 294 294 294 294 295 296 296 297 297 298 299 299 300 301 301 302 303 304 305 305 308 307 311 309 306 306 308 309 308 307 307 308 307 305 303 302 302 304 306 307 308 309 308 301 291 292 292 293 300 310 309 307 305 303 302 302 301 300 299 298 291 289 289 289 289 290 291 294 302 302 301 300 298 296
292 292 291 291 291 291 291 292 292 292 292 293 293 292 293 294 294 295 296 297 297 298 299 299 300 300 301 302 303 304 306 309 307 307 311 308 307 306 310 310 307 306 305 303 303 302 300 300 301 303 305 304 302 301 305 293 291 291 291 295 307 309 306 305 303 302 301 301 300 299 298 291 288 288 288 289 289 290 291 298 295 288 287 289 297
290 289 290 290 289 289 290 290 291 291 292 292 292 292 292 293 293 295 296 297 297 298 298 298 298 299 300 301 302 303 304 306 308 307 306 310 308 306 307 309 309 308 306 304 301 300 300 300 300 301 301 302 303 300 296 299 291 291 290 292 296 299 293 306 304 302 301 299 299 298 295 289 288 288 288 288 289 289 292 293 287 287 287 287 292
289 289 289 289 289 289 289 290 290 291 291 291 291 290 291 291 292 295 296 296 296 297 297 297 297 298 299 300 301 302 303 305 305 307 308 308 307 307 306 307 310 309 307 305 303 302 302 302 301 299 299 299 300 301 294 293 295 289 290 290 291 291 294 305 305 302 301 299 299 299 294 288 288 288 288 288 288 290 291 287 287 287 288 290 296
288 288 289 289 288 288 288 289 290 290 290 290 291 290 290 290 292 294 294 294 294 295 295 295 296 297 298 299 300 301 302 303 304 305 304 305 308 306 305 306 307 308 307 306 303 303 304 303 301 300 299 298 298 299 299 293 290 290 289 289 289 289 290 292 300 300 300 299 292 288 288 288 288 288 288 288 289 287 286 286 287 287 291 296 296
288 288 288 288 288 289 288 288 289 290 290 290 290 290 289 290 292 292 292 293 293 293 293 294 294 296 297 297 298 299 301 302 303 303 304 304 306 306 306 305 304 305 306 305 302 301 301 300 299 299 296 295 296 298 298 297 293 292 291 288 288 289 291 292 294 295 289 288 288 288 287 287 288 291 295 295 294 293 287 287 287 291 296 294 294
287 288 288 288 288 287 287 288 288 289 290 290 290 290 290 291 291 291 291 292 292 292 292 293 293 294 296 297 297 298 299 301 302 302 303 303 303 305 306 305 304 304 304 304 301 301 301 300 299 295 293 292 294 297 298 298 300 299 297 295 295 293 290 291 294 294 292 293 292 292 292 289 289 287 289 289 290 290 293 294 294 294 294 293 294
289 289 289 288 288 287 287 287 288 289 290 290 290 290 291 291 291 291 291 291 291 291 291 292 293 294 294 296 297 292 294 298 300 302 302 301 302 303 304 306 306 306 304 302 302 301 300 300 298 295 293 293 294 296 297 298 299 299 299 299 298 297 298 298 297 297 297 295 293 288 290 294 294 294 294 295 295 294 291 290 293 293 292 291 290
288 288 288 287 287 287 287 287 288 289 290 290 290 291 291 291 291 292 291 290 290 290 290 291 292 293 294 295 296 297 298 298 299 301 302 300 302 302 302 304 305 304 303 304 305 306 303 303 300 294 294 294 293 294 297 294 299 293 296 299 298 298 298 298 294 292 295 295 295 294 293 293 293 291 291 291 293 293 291 292 292 293 293 292 292
289 288 288 288 288 287 287 287 288 290 290 290 290 291 292 292 292 292 291 290 289 289 290 290 292 293 294 295 296 297 298 298 299 299 300 298 287 288 294 301 300 293 291 291 292 300 303 303 300 297 297 296 295 297 291 289 289 290 290 291 292 292 291 294 289 289 292 293 292 291 291 291 291 291 291 291 291 291 290 290 290 288 291 291 291
288 287 287 287 287 288 288 288 289 290 290 290 290 291 292 292 292 292 291 290 290 288 288 289 290 292 292 294 295 296 298 298 299 299 299 299 298 295 287 286 289 292 291 290 290 291 290 292 295 294 292 287 289 288 288 289 288 288 288 288 288 288 288 287 287 291 292 292 291 291 291 291 291 291 290 290 290 290 289 289 290 290 290 290 289
Wind_Speed
6 8 8 7 6 5 4 4 5 7 7 7 7 7 7 7 6 4 3 5 7 7 6 7 7 6 4 5 5 4 4 4 4 3 3 4 5 4 3 3 5 5 5 5 6 6 6 6 6 5 5 5 5 6 6 6 5 6 9 8 8 5 4 4 4 5 5 4 3 3 4 4 4 4 4 2 4 4 3 2 1 0 1 0 1
6 6 7 6 5 6 5 4 7 9 7 8 9 8 8 7 7 5 4 5 4 6 7 6 4 4 5 5 5 5 4 4 4 3 3 3 4 4 4 3 4 5 5 5 5 5 6 6 5 5 4 4 5 7 8 8 7 6 7 8 5 6 5 6 5 5 4 3 3 3 2 3 3 3 3 5 4 3 3 4 3 2 2 2 2
8 8 7 8 7 8 6 6 7 7 9 10 10 8 7 7 5 5 4 5 4 5 6 5 4 4 4 5 5 5 4 3 4 4 4 5 5 5 5 4 5 5 6 6 5 5 5 5 5 4 4 5 5 6 7 7 6 6 5 5 6 4 4 4 5 3 2 3 2 3 3 3 3 4 5 6 5 4 3 3 2 2 4 3 3
10 10 9 8 9 8 7 7 8 7 8 9 10 9 6 5 5 5 4 4 4 4 5 6 7 7 7 6 4 4 5 4 5 5 6 7 5 3 4 5 5 5 6 6 5 6 5 6 6 5 5 4 5 5 5 5 5 5 5 7 7 6 4 3 2 2 2 4 4 1 2 1 4 4 5 5 4 5 5 5 5 4 4 4 3
11 10 9 9 10 10 10 9 8 9 10 10 10 9 5 7 6 5 4 5 4 6 7 8 8 8 7 7 7 7 5 4 4 5 4 6 6 4 3 3 5 5 5 5 6 6 5 4 5 5 5 5 4 5 5 5 5 4 5 5 6 5 6 4 3 2 2 1 1 4 2 3 2 6 6 5 2 5 6 6 6 6 5 5 5
9 10 8 9 9 8 8 9 9 10 9 4 2 4 9 8 8 6 5 6 7 7 8 7 7 8 7 7 6 5 5 4 4 4 4 4 5 3 4 3 3 5 5 5 5 5 5 5 5 5 4 4 4 4 5 6 5 5 5 4 5 4 5 6 5 3 2 3 1 3 2 0 5 5 5 6 4 5 6 8 8 7 6 7 7
5 6 7 8 9 9 9 9 6 4 14 20 21 19 15 6 6 5 6 6 6 7 8 6 6 6 6 6 6 6 6 3 2 2 3 3 3 4 4 4 4 4 4 4 5 5 5 5 5 4 3 3 3 4 5 5 6 5 4 4 4 4 5 4 6 6 5 3 2 0 0 1 2 6 4 8 7 5 7 7 9 10 10 10 9
8 8 8 8 8 9 8 6 16 18 15 15 14 12 11 11 6 2 1 4 4 4 5 5 7 6 6 6 5 5 5 6 4 3 3 3 4 4 3 3 4 4 4 4 4 4 4 5 4 4 3 3 3 4 5 5 5 5 5 4 4 3 4 4 5 6 6 5 3 4 3 3 2 2 3 3 6 7 7 8 9 9 10 10 9
8 6 6 6 7 4 7 16 17 14 10 10 10 12 12 9 4 4 5 4 3 5 6 5 6 6 6 6 6 4 6 6 4 4 4 3 6 4 4 4 4 4 4 4 3 3 3 3 3 3 2 2 2 3 3 5 5 5 5 5 4 4 3 3 5 5 5 6 5 4 4 4 4 3 3 3 7 8 7 8 8 8 10 9 8
5 5 5 5 4 6 12 17 15 10 9 13 14 10 6 9 10 9 7 3 1 5 5 6 6 6 6 6 8 6 6 6 5 5 4 3 6 4 3 3 3 3 4 4 3 3 2 3 3 3 2 2 1 3 3 4 4 4 4 3 4 5 3 4 4 5 4 6 4 5 5 6 6 5 4 5 4 4 8 8 7 8 9 7 6
5 6 6 6 6 10 14 15 13 11 9 11 12 15 14 13 13 11 5 3 2 1 4 7 6 5 6 6 7 8 7 7 7 5 5 5 5 4 3 3 2 3 3 3 3 3 3 4 4 4 3 2 3 3 3 3 3 4 4 6 6 6 4 5 6 5 5 5 5 5 5 4 4 5 4 4 5 6 8 8 6 7 9 8 7
8 9 8 9 10 10 12 12 10 9 9 11 11 13 15 12 10 6 7 6 4 3 3 3 4 4 5 6 7 6 7 6 6 6 5 6 5 4 3 3 3 3 3 3 3 3 3 4 4 4 3 3 3 3 3 3 4 4 4 5 5 6 7 7 6 6 4 4 3 3 4 4 4 4 4 3 4 7 8 9 8 7 7 7 5
8 8 8 8 9 10 10 9 8 6 8 11 11 9 8 13 14 10 5 3 3 7 9 8 7 6 6 6 6 5 5 6 6 6 4 5 4 4 3 4 3 3 2 3 4 4 3 3 3 3 3 2 3 3 3 3 3 4 5 6 6 7 6 7 6 6 5 6 5 3 4 5 5 4 4 4 3 5 7 9 6 4 7 6 5
8 9 9 8 8 8 8 7 7 6 6 10 10 13 12 11 11 12 11 9 10 8 6 6 5 5 6 7 8 7 6 5 4 5 4 3 3 3 3 4 4 3 3 4 3 2 3 3 3 3 3 3 3 3 4 3 3 4 5 5 6 5 5 6 6 6 5 5 4 5 5 5 4 3 4 4 4 6 7 8 8 5 6 7 5
9 9 9 9 8 5 6 7 6 7 6 6 9 11 10 9 12 13 13 13 9 4 7 9 6 6 4 3 4 6 7 6 4 4 4 4 2 2 2 2 3 3 3 3 3 3 3 2 3 4 3 3 3 3 3 3 3 4 5 5 5 4 5 5 5 6 5 5 5 5 5 5 4 4 3 4 4 4 6 8 10 10 7 5 6
9 10 10 10 10 6 3 6 6 6 8 6 9 10 10 11 12 14 15 12 9 10 9 8 8 7 9 8 7 6 5 5 6 5 4 4 2 1 1 2 2 3 3 4 3 2 2 3 4 4 3 3 3 3 3 3 3 5 5 5 5 2 5 6 5 5 5 6 6 5 5 6 4 4 4 4 5 5 4 2 4 7 9 8 5
8 9 9 5 4 5 3 1 1 6 7 8 9 9 12 12 12 11 8 7 10 11 11 10 7 5 8 9 9 7 5 7 6 6 5 4 1 2 1 2 3 2 3 3 4 3 2 2 3 4 4 3 3 4 4 4 4 5 5 5 5 3 4 5 3 4 5 5 5 5 6 5 4 4 4 4 4 4 4 3 2 2 4 7 6
7 7 7 7 5 3 4 4 5 6 7 8 9 10 10 11 13 13 9 9 10 11 10 5 9 10 10 10 8 6 3 6 9 6 4 3 2 1 1 3 4 3 3 3 4 3 3 3 3 3 3 4 4 4 4 5 5 5 5 5 4 4 5 3 3 4 4 4 5 5 5 5 4 4 4 3 3 3 4 5 5 4 3 4 4
7 7 7 7 6 4 4 5 3 4 4 6 8 8 7 6 8 10 12 10 10 8 6 7 10 9 9 10 12 7 3 1 6 9 7 6 6 4 3 3 4 5 4 4 4 4 3 3 2 3 3 4 4 4 4 4 4 5 5 5 4 3 4 4 3 3 3 4 5 5 5 5 3 3 3 2 2 3 4 4 5 5 6 5 4
6 7 7 7 7 8 8 6 4 4 5 5 6 6 8 7 9 7 7 8 8 8 8 9 10 10 10 10 10 8 4 3 2 5 6 6 5 4 4 4 4 5 5 5 4 4 4 4 3 3 3 3 4 4 3 4 3 4 4 5 4 4 6 5 4 3 2 2 4 4 3 4 2 3 3 3 3 3 2 4 4 5 5 5 4
7 7 7 9 9 9 9 7 6 5 4 4 5 7 7 7 9 9 10 11 11 10 10 9 9 10 12 11 10 9 8 5 3 3 3 3 4 4 4 3 2 4 6 5 5 4 4 4 4 3 3 3 3 3 3 3 3 3 3 4 4 4 5 5 4 4 3 3 3 4 4 3 2 3 4 3 4 4 3 3 4 4 5 4 4
7 7 8 9 10 9 9 7 5 6 7 6 5 4 6 6 7 8 9 9 11 11 10 10 10 10 11 10 10 9 8 6 6 3 3 3 4 5 5 5 5 3 3 6 6 4 4 4 3 3 3 3 3 4 3 2 2 3 3 1 2 3 3 4 3 4 4 2 3 4 5 4 2 3 4 5 5 5 5 5 4 4 4 4 2
11 11 11 11 10 9 8 9 10 9 8 7 6 5 4 4 5 6 7 8 8 9 9 9 8 8 9 8 8 9 8 7 6 5 5 5 5 5 5 6 5 4 2 2 5 6 5 5 4 4 4 3 3 3 3 2 2 1 1 2 2 2 3 4 4 4 5 4 3 4 5 4 2 4 4 3 4 5 4 5 5 4 5 4 4
11 11 11 10 10 10 11 11 10 8 8 7 5 5 4 3 3 4 6 7 7 7 8 9 8 7 6 6 7 7 7 6 6 5 6 6 5 5 6 5 5 5 4 2 2 6 6 5 5 5 4 4 3 3 3 2 2 2 2 2 2 3 3 4 4 5 5 5 6 5 5 4 4 5 5 4 4 4 4 5 5 4 5 5 4
11 12 12 12 14 14 11 10 10 10 9 8 7 5 4 4 2 3 3 5 5 6 7 8 8 8 7 6 6 6 7 7 6 5 5 6 6 6 6 7 6 5 6 5 3 4 6 7 6 6 5 5 4 4 4 3 3 2 0 2 3 4 3 4 4 4 4 5 6 6 6 6 5 5 5 5 5 6 5 5 5 4 4 4 3
11 13 15 14 12 11 12 11 11 11 10 10 9 8 6 5 4 2 2 3 4 5 7 7 7 8 8 8 7 6 7 6 6 5 5 5 5 6 6 6 7 6 6 7 7 5 5 6 7 7 6 5 5 4 3 2 2 1 0 1 3 4 5 5 5 5 5 5 6 7 6 6 7 7 6 5 6 7 5 5 5 4 5 4 4
13 13 11 13 14 14 13 12 11 11 11 9 9 9 8 7 6 4 2 1 3 4 5 6 7 8 7 7 7 7 6 6 6 6 5 6 6 6 7 7 7 8 8 8 8 8 6 6 6 6 6 6 5 5 4 4 5 5 4 4 4 4 5 5 6 6 6 6 6 7 7 7 8 8 7 7 7 6 5 6 5 5 4 5 4
14 14 15 14 13 13 13 12 13 12 11 10 9 9 8 8 8 7 5 3 0 2 4 6 7 7 7 7 6 6 6 6 5 4 5 6 6 6 7 7 7 8 8 9 9 9 7 6 6 6 6 5 5 4 4 5 6 7 7 6 5 5 6 6 6 6 6 7 7 7 7 7 8 9 8 7 8 7 6 6 5 5 5 5 4
15 14 13 13 13 11 12 12 12 13 13 12 10 10 9 8 8 7 6 5 3 2 3 5 6 8 8 8 5 5 5 5 6 6 7 5 2 1 4 6 6 6 5 7 8 9 8 6 6 5 5 7 7 6 5 4 5 6 6 7 7 7 7 7 7 6 6 6 6 7 7 7 8 8 7 5 7 8 7 7 6 6 6 6 5
13 13 12 12 12 12 12 13 13 13 13 13 11 11 10 9 8 7 7 6 3 0 3 4 5 6 5 6 6 5 5 6 8 7 6 4 5 6 5 6 7 7 7 7 8 8 8 6 5 5 4 5 4 1 4 4 4 6 6 7 6 6 7 7 7 7 6 6 6 5 5 6 6 8 8 8 7 9 11 8 8 7 7 6 5
12 12 12 12 13 13 13 13 13 12 12 10 9 10 10 11 10 9 8 7 5 3 1 2 3 3 2 2 4 5 6 8 7 5 4 6 8 8 7 5 3 5 7 7 5 5 6 7 9 9 9 8 7 9 15 9 8 13 8 6 7 7 6 6 6 6 6 6 4 4 4 4 6 7 8 10 10 11 12 9 10 12 9 9 7
12 12 12 13 13 13 13 12 12 12 12 11 10 10 10 10 9 9 8 7 7 6 5 4 3 2 2 4 4 4 6 8 7 8 7 9 9 9 10 12 10 12 13 13 13 10 9 9 10 11 10 9 8 11 13 10 12 12 7 5 4 4 4 4 4 5 4 4 5 5 4 3 3 4 4 7 9 11 11 6 6 9 7 6 9
11 12 12 12 11 11 11 11 11 11 11 11 10 10 9 8 8 7 6 7 7 7 6 6 4 2 1 2 5 7 8 9 10 8 8 10 10 12 12 12 12 11 8 9 11 10 9 8 9 11 11 9 8 12 14 13 12 8 6 4 3 3 4 3 2 2 3 3 3 3 3 3 2 2 5 5 5 6 7 5 6 8 9 6 6
10 10 10 10 10 10 10 11 11 11 10 8 9 9 8 6 7 6 7 7 7 7 6 7 7 5 2 1 3 6 7 9 9 9 10 11 11 11 9 8 7 8 9 9 9 9 8 8 9 10 8 8 7 11 12 11 9 6 5 4 2 1 1 2 3 3 3 3 3 3 3 3 2 2 2 2 3 4 7 7 7 6 5 6 7
9 10 10 10 10 11 12 12 12 11 11 11 12 11 9 10 10 10 8 8 7 7 7 6 6 6 5 2 3 5 7 8 8 9 10 10 8 7 8 8 9 11 11 10 10 9 7 8 8 8 7 7 6 11 10 9 7 6 5 4 2 2 2 2 2 3 3 3 3 2 3 3 2 2 2 2 2 4 7 7 7 6 5 5 5
8 8 9 9 9 10 10 10 9 10 10 11 11 10 10 10 9 10 10 9 8 8 9 8 8 6 6 5 3 4 6 6 5 5 7 8 6 7 10 9 7 7 6 5 5 5 6 7 8 8 8 8 5 10 11 10 9 7 7 4 4 3 3 3 3 3 2 2 2 3 2 2 3 3 5 5 2 4 7 7 7 7 6 6 7
7 7 8 8 8 8 8 8 9 9 10 11 11 11 10 9 9 9 9 9 9 9 10 10 10 10 8 4 3 3 4 5 6 6 7 8 8 8 7 3 3 6 6 7 7 7 7 8 8 8 9 7 6 7 10 11 9 9 7 4 4 4 4 3 2 1 2 3 3 3 2 2 3 5 5 6 4 2 6 6 6 6 5 5 5
7 7 6 8 7 8 8 7 8 9 10 10 11 11 11 10 9 9 9 9 9 9 10 10 10 11 10 9 5 3 3 4 4 7 9 8 6 6 7 7 11 6 3 5 4 5 6 7 9 10 9 9 8 7 10 10 11 11 8 6 5 5 5 4 4 3 3 5 7 10 5 4 4 5 5 6 3 2 4 5 5 6 5 5 4
7 8 8 8 7 7 7 8 8 9 10 10 10 11 10 9 9 9 9 8 8 9 10 11 11 10 10 9 9 7 4 3 4 5 6 7 6 6 6 6 7 9 10 7 5 4 4 2 2 3 9 10 8 6 9 11 11 11 7 5 5 5 5 4 5 5 5 6 6 9 12 9 7 7 8 7 4 2 4 4 4 4 4 4 4
8 8 9 9 8 9 9 8 8 8 8 9 9 8 8 8 8 9 8 8 8 9 9 9 10 10 9 9 8 9 7 5 5 2 2 4 3 4 6 7 4 5 6 6 6 6 7 6 6 5 5 7 8 6 7 11 12 11 9 6 5 5 5 5 4 5 6 5 6 7 8 9 11 11 11 11 10 9 6 5 3 3 4 4 4
7 8 9 8 8 8 9 10 9 9 9 8 7 7 6 6 7 7 8 8 9 9 9 9 9 9 10 10 9 8 9 6 5 4 2 1 2 4 6 6 6 4 4 4 5 5 6 6 5 4 5 5 5 7 6 9 10 10 9 8 5 4 6 6 6 6 5 6 5 6 6 7 10 11 11 11 11 10 7 5 4 3 4 5 3
5 6 7 8 8 9 9 9 8 9 9 9 9 9 8 8 8 8 8 7 8 9 9 9 9 10 10 9 9 9 8 5 2 5 3 3 2 2 2 5 6 7 7 3 2 4 5 5 4 4 5 5 4 3 7 6 9 10 9 5 4 5 6 7 6 6 6 6 5 5 6 6 10 11 11 11 11 10 9 7 7 8 7 4 3
9 9 9 9 9 9 9 9 8 8 7 8 8 10 9 8 9 9 8 7 8 8 9 10 10 10 9 9 9 9 7 6 4 2 5 3 2 3 2 3 6 7 7 8 2 2 4 5 5 4 4 4 4 4 4 6 7 7 6 5 7 8 5 6 7 6 6 6 6 7 6 7 10 10 10 10 9 9 9 7 7 7 7 4 1
7 8 9 10 9 9 10 9 9 8 8 7 7 9 9 10 11 9 9 8 8 8 9 9 9 9 9 8 8 9 7 6 6 5 2 2 2 1 2 4 6 7 6 6 6 6 6 6 6 5 4 3 3 4 3 3 6 6 8 10 11 10 7 5 6 6 6 7 7 6 7 8 10 11 11 11 11 10 7 7 7 6 4 1 1
8 9 9 8 9 10 10 10 9 9 8 8 7 9 11 12 11 9 10 10 10 9 9 9 9 9 9 9 8 8 8 7 7 6 7 4 3 3 4 3 4 5 8 7 7 6 6 6 6 7 6 5 4 4 4 4 6 8 10 11 11 10 9 11 8 7 7 6 9 11 12 11 12 12 13 12 10 9 9 8 6 3 2 1 2
8 9 10 10 10 10 10 11 11 10 9 8 8 9 12 12 11 11 11 11 11 11 10 10 10 9 9 9 10 9 8 7 7 6 6 7 6 5 5 4 3 3 4 7 7 6 6 6 6 6 6 6 5 5 5 6 6 8 8 10 12 12 11 12 12 10 12 13 12 12 13 12 10 8 6 6 6 6 7 7 4 1 1 2 2
10 10 12 11 11 11 12 13 14 11 10 9 9 10 11 12 11 11 11 11 11 11 11 10 10 10 9 8 9 8 7 7 7 5 5 5 6 6 6 5 6 5 4 3 5 7 7 7 7 6 6 6 7 7 7 7 7 7 7 8 9 10 14 14 11 9 10 9 9 7 7 9 9 10 9 8 8 6 5 3 2 2 2 2 1
12 12 13 13 12 13 14 15 14 13 12 12 12 13 13 13 13 13 13 13 12 11 11 11 11 9 9 9 8 7 8 8 7 6 4 4 4 4 5 5 6 6 7 5 4 4 6 6 6 6 6 6 6 6 7 8 7 7 7 7 7 8 8 7 9 8 8 9 9 10 10 7 6 6 5 4 3 3 2 1 1 1 1 1 0
13 13 12 12 13 13 14 14 14 13 13 13 14 14 14 15 14 13 13 13 13 14 13 13 12 10 10 8 8 8 7 8 7 6 4 4 5 5 6 4 1 1 2 1 2 3 3 3 5 8 9 5 4 5 5 5 8 10 9 9 8 8 7 7 8 12 10 8 7 6 4 5 4 3 2 2 2 2 1 2 2 1 1 1 2
12 11 12 12 12 12 13 14 13 13 13 13 13 13 13 13 13 13 13 14 14 13 13 13 11 10 10 9 8 8 8 7 7 7 4 3 3 1 3 4 2 3 5 8 5 0 3 3 3 3 2 7 9 9 11 11 11 12 11 11 10 10 9 10 13 13 10 7 5 4 4 3 3 2 2 2 1 0 0 0 1 1 1 1 3
13 13 12 12 12 12 13 13 13 12 12 12 13 13 14 14 14 13 13 14 14 13 13 11 11 11 11 10 9 8 7 6 6 6 4 4 4 3 6 3 2 5 7 8 10 14 10 6 5 5 1 9 9 13 16 13 13 12 12 13 13 13 15 16 14 8 6 5 5 4 4 3 2 2 1 1 1 1 0 0 0 1 1 1 2
Wind_Direction
168 183 196 193 176 179 178 159 150 156 161 174 194 195 163 167 173 189 156 136 141 136 137 144 140 133 126 116 109 111 105 102 93 81 77 97 114 116 137 132 132 133 133 137 136 140 144 145 143 147 148 147 142 137 141 137 136 131 122 132 141 137 128 132 136 145 135 122 129 117 95 67 68 66 70 59 42 38 24 21 359 33 70 137 39
158 180 190 186 182 175 178 179 167 165 170 173 195 196 168 158 172 162 154 141 140 139 142 146 149 140 131 124 119 118 125 114 102 91 83 92 116 116 115 114 128 133 136 134 135 141 142 143 143 142 139 119 111 123 131 136 141 140 134 124 142 145 143 152 152 166 167 175 171 149 144 96 77 72 63 46 41 40 11 359 31 19 351 349 13
174 181 186 186 181 179 186 187 188 184 166 179 193 196 167 159 166 147 149 133 138 142 144 131 110 84 100 118 116 102 62 73 95 103 114 112 112 117 113 111 119 122 129 131 131 131 128 128 126 124 119 121 124 130 134 139 142 145 152 134 136 139 126 155 169 227 173 174 176 181 159 170 122 109 82 49 34 32 16 16 1 44 29 18 13
181 179 185 184 179 181 190 191 191 185 175 183 189 189 160 160 143 125 125 118 135 133 101 88 85 81 73 91 81 86 111 105 110 128 126 115 102 97 97 106 108 110 116 120 120 119 122 124 127 124 119 119 126 134 139 146 156 159 160 147 147 147 158 153 185 203 237 163 175 229 108 224 135 94 83 51 51 54 46 42 31 31 30 37 29
177 178 182 178 181 188 193 197 188 191 190 186 183 178 139 130 116 121 118 133 145 129 116 115 109 96 94 89 97 98 100 108 113 91 91 110 109 88 85 105 112 108 107 108 112 116 115 112 115 119 125 134 144 147 154 157 166 177 170 165 175 163 160 151 152 180 161 326 199 131 160 195 110 117 113 85 63 76 60 61 47 38 42 44 50
180 185 182 179 184 183 197 196 200 202 196 185 100 86 69 77 120 134 148 157 156 145 139 136 132 128 130 131 131 125 123 127 108 106 104 78 78 91 88 77 91 106 111 113 112 117 122 124 123 125 132 144 149 141 139 139 147 160 164 167 154 155 150 154 146 155 168 186 281 354 350 119 151 151 187 122 106 75 64 63 65 63 63 66 60
197 181 173 181 191 191 197 203 206 31 48 63 61 64 70 22 325 169 163 160 155 146 144 128 123 131 140 140 138 136 126 96 90 90 100 100 94 81 86 88 94 107 104 109 121 127 130 134 137 137 138 142 140 144 138 142 148 153 153 168 152 144 151 149 154 151 143 143 144 57 6 341 97 157 159 136 133 89 61 62 63 64 63 62 62
189 194 186 184 187 197 198 73 60 75 67 66 92 107 128 187 204 299 33 68 58 95 125 129 130 137 128 116 114 120 123 128 130 109 98 103 87 76 76 71 78 91 113 119 124 133 135 140 145 141 143 130 142 140 139 141 144 149 162 154 151 162 160 159 156 162 165 135 132 127 122 111 79 43 154 184 140 131 104 85 73 64 62 58 58
191 183 182 181 180 180 75 86 92 86 100 107 103 115 166 204 131 58 40 43 98 116 135 152 145 145 133 127 120 114 118 122 121 117 109 102 90 73 67 71 70 68 79 102 108 126 142 144 140 138 122 111 122 119 122 134 144 151 159 163 166 157 142 136 151 156 150 145 145 136 145 118 104 79 87 117 128 127 116 115 104 84 69 58 58
168 153 144 149 146 101 96 107 108 121 124 121 122 120 26 15 24 58 50 35 9 144 143 144 139 136 135 138 133 134 129 125 126 114 101 93 89 80 82 74 70 79 75 73 86 97 107 117 124 107 95 96 98 96 110 127 140 147 153 153 151 133 122 143 139 136 139 150 150 138 128 119 115 110 94 103 92 121 140 140 129 110 86 62 51
141 135 122 109 102 104 109 113 123 130 131 124 109 98 78 45 21 10 17 48 339 305 139 137 138 147 141 147 137 133 130 128 125 113 114 111 103 89 83 79 62 73 82 82 73 84 90 84 90 99 93 96 110 125 131 129 130 128 131 134 133 131 128 116 119 120 124 132 144 147 145 149 142 140 141 141 139 129 130 131 126 108 107 96 67
134 129 123 112 101 98 105 114 120 127 118 106 115 117 121 126 113 70 3 5 9 2 56 105 130 139 143 143 138 136 138 136 130 127 124 118 113 109 105 103 90 82 76 83 71 59 75 80 78 89 97 106 104 105 110 116 119 122 124 123 115 108 120 125 125 129 130 122 117 112 98 99 107 119 118 131 144 145 144 139 132 126 112 100 105
135 122 113 99 90 88 90 107 117 113 109 115 119 117 117 130 130 120 145 21 304 213 179 165 155 156 155 140 131 133 129 125 121 117 115 116 114 116 125 115 116 107 80 83 67 52 56 85 90 92 103 90 101 103 99 103 110 109 108 106 109 115 120 127 129 130 132 127 120 100 108 105 102 97 118 117 100 119 135 132 124 139 119 115 113
126 112 104 97 91 87 96 98 86 79 111 136 143 145 152 143 148 153 130 162 212 241 242 153 131 141 157 147 140 137 125 115 115 120 109 97 107 119 133 130 126 110 102 78 64 58 62 61 80 80 74 93 91 94 98 99 101 110 107 101 98 95 106 108 112 113 101 106 121 120 109 109 107 112 116 125 129 139 138 134 130 112 121 117 109
123 116 110 106 101 119 142 129 126 139 161 159 156 159 151 152 161 159 171 191 167 111 27 28 43 67 53 58 100 121 131 132 115 96 101 106 85 95 107 119 122 104 96 89 70 59 64 72 67 78 71 73 82 90 88 88 82 90 90 91 95 104 112 113 117 123 121 125 115 117 118 114 113 115 107 94 101 114 135 141 141 134 128 124 119
126 123 127 131 130 157 152 109 121 139 167 165 162 160 157 163 175 183 185 182 151 121 137 154 157 169 148 135 122 113 98 105 104 92 81 54 23 114 139 114 90 104 96 102 78 71 69 81 88 76 70 67 64 71 78 91 85 93 96 94 96 85 108 111 114 113 113 116 116 118 116 108 108 102 94 80 78 78 96 143 165 147 142 134 129
140 144 142 106 47 52 41 94 97 142 164 172 176 173 169 169 182 194 201 139 140 146 165 182 152 134 119 100 89 75 81 90 83 93 105 102 52 317 130 114 109 111 106 99 101 84 77 69 88 92 84 87 84 75 76 78 73 78 85 87 87 76 90 97 97 113 114 118 120 114 108 112 99 85 83 85 85 80 76 70 69 117 135 136 135
53 55 51 55 49 42 47 70 106 128 165 177 186 185 182 177 183 191 194 172 159 164 175 156 114 80 64 72 72 90 172 128 123 118 103 98 137 211 191 157 137 130 126 119 115 106 98 88 97 96 95 90 87 90 90 92 94 89 85 80 77 79 85 79 78 99 105 111 119 118 115 112 108 103 97 92 94 89 82 75 70 60 48 102 114
56 55 49 50 59 73 79 84 93 125 174 193 189 182 172 169 176 188 191 185 171 164 141 107 111 131 145 147 145 162 185 212 145 139 143 170 172 175 195 159 137 147 150 148 142 136 134 126 126 114 105 99 92 87 90 90 97 105 100 99 91 102 102 94 77 88 90 109 116 116 118 117 125 114 120 111 104 103 100 97 87 73 70 69 92
59 67 69 64 62 62 63 71 88 127 153 180 176 165 153 150 158 154 151 166 169 165 144 134 146 152 156 163 155 145 157 148 272 125 145 165 165 165 176 178 181 157 158 157 158 156 159 155 150 142 128 109 100 90 80 85 91 99 117 121 122 133 129 127 126 120 122 119 125 126 123 122 134 139 130 128 121 99 98 107 103 100 94 84 82
40 43 47 56 50 49 55 56 75 83 103 129 148 155 148 147 154 157 161 168 173 169 157 150 156 166 166 172 159 157 168 153 207 119 146 145 154 175 181 183 186 189 158 161 166 167 165 157 148 139 127 113 104 96 81 86 98 104 109 117 137 148 146 142 144 145 147 154 145 135 132 128 150 137 131 138 133 130 128 113 110 109 102 94 89
53 53 54 51 50 47 47 49 56 69 67 69 82 108 123 139 157 158 162 166 166 164 166 164 173 175 172 175 169 168 171 164 165 165 174 172 172 190 180 174 192 218 189 161 164 157 153 142 126 122 118 114 112 104 106 107 118 130 123 123 149 161 159 146 159 161 158 161 161 156 149 156 186 154 157 151 144 151 146 139 131 121 109 103 86
43 42 44 48 51 45 49 50 46 38 37 45 56 66 87 121 145 165 172 168 165 163 165 171 177 182 180 178 173 172 179 168 167 172 182 182 181 186 198 191 175 168 244 216 160 153 149 139 128 119 118 116 116 115 113 116 102 81 161 164 174 192 186 176 180 177 177 168 180 179 172 172 181 175 176 154 158 159 158 139 132 126 118 112 110
44 46 45 41 45 43 40 37 40 45 44 36 40 64 85 115 144 161 173 169 164 162 166 178 183 196 194 195 186 171 167 173 185 196 187 183 179 183 188 206 181 155 170 220 191 157 143 139 133 129 126 123 126 124 110 88 70 50 342 313 255 212 210 215 209 196 188 188 195 193 188 184 186 190 182 171 177 167 166 144 145 135 134 129 118
47 48 46 44 40 37 33 31 33 34 40 41 38 40 62 77 121 150 161 163 167 167 177 186 191 196 201 205 201 183 178 182 194 208 205 182 186 186 187 192 185 176 160 157 168 157 149 147 143 141 132 124 115 102 97 104 115 113 44 303 291 282 262 236 228 225 211 210 203 209 199 190 192 200 191 192 181 182 172 162 160 152 144 133 133
56 54 48 44 42 41 37 32 36 33 31 30 31 37 41 46 45 35 145 167 166 175 183 185 191 197 198 201 203 208 198 190 197 206 195 178 187 192 187 186 185 175 162 157 156 164 163 149 141 135 130 122 115 104 88 71 73 88 95 246 251 253 256 254 238 231 225 220 221 219 210 199 200 206 203 196 186 187 175 177 168 168 149 146 141
52 53 54 52 45 41 39 38 41 40 36 33 26 29 33 34 38 35 27 156 166 183 187 191 196 206 210 207 203 214 222 203 194 208 206 201 192 187 183 187 186 175 170 162 157 155 156 147 135 128 122 104 82 67 52 29 4 357 332 299 263 241 235 233 238 233 231 231 232 230 219 208 211 213 209 198 189 186 185 184 175 164 164 157 160
53 49 47 50 48 44 41 39 40 41 42 42 40 34 32 27 26 21 19 14 14 194 194 201 202 210 222 222 216 215 231 232 225 213 213 218 207 178 185 179 179 183 178 167 158 149 138 124 120 114 108 109 91 75 50 25 0 341 320 303 286 259 253 242 231 226 222 225 227 230 229 220 220 219 216 204 190 189 187 190 177 172 170 174 170
53 50 48 46 45 42 39 39 36 36 36 36 38 37 34 33 25 17 17 16 358 255 216 213 212 217 220 223 218 215 226 240 230 230 221 195 157 159 189 186 180 181 167 161 143 132 128 105 80 69 66 61 50 28 3 7 348 311 302 296 279 268 260 260 254 242 226 226 230 228 227 226 222 239 240 231 206 189 183 191 178 179 177 183 181
55 52 51 49 47 45 44 43 39 36 33 32 31 34 36 37 30 21 16 7 351 160 202 216 228 233 236 231 222 201 201 211 219 217 209 165 153 170 187 187 183 175 167 147 139 136 128 124 103 109 98 86 97 58 308 296 269 277 280 269 264 261 256 254 257 260 254 242 244 245 240 224 231 233 237 238 237 220 210 203 174 178 174 178 182
51 47 44 44 42 40 40 40 38 36 34 31 27 27 28 35 35 34 28 13 8 12 336 250 243 262 262 239 219 204 201 213 214 215 178 171 165 163 166 183 179 138 140 149 154 179 182 155 209 197 168 161 180 180 202 207 233 249 253 265 263 262 254 253 255 261 267 275 268 264 270 206 204 217 224 220 219 216 224 241 184 181 174 178 184
45 42 39 35 34 31 29 28 28 28 30 26 21 24 28 26 23 27 29 33 38 31 25 20 14 5 306 250 227 204 210 224 226 215 184 185 169 161 174 185 183 178 175 173 182 203 205 198 204 193 180 179 200 162 161 189 225 239 232 247 260 267 267 261 263 266 274 281 286 287 285 283 259 242 253 207 207 213 215 228 194 179 171 37 22
40 38 35 31 28 26 24 20 23 23 22 20 18 20 20 14 20 16 20 30 40 45 45 38 24 13 4 262 232 226 224 226 228 218 199 192 171 176 190 195 192 198 189 183 192 196 207 202 196 194 190 181 186 159 170 191 214 220 219 220 251 257 255 263 283 301 311 310 309 303 296 289 299 161 226 235 217 193 174 136 128 102 74 74 67
41 37 32 26 22 19 18 18 18 17 18 12 20 15 1 1 1 15 24 21 25 34 41 42 38 25 348 250 228 230 231 230 226 221 208 195 187 192 196 195 191 197 202 199 196 197 198 195 192 193 179 170 171 163 167 182 197 191 184 193 229 224 344 9 9 6 353 344 337 322 319 317 333 302 284 238 220 183 157 149 154 158 131 105 86
35 30 26 20 16 12 11 12 10 5 7 11 14 6 358 9 6 6 6 9 10 16 27 27 36 29 16 327 233 219 232 230 224 221 212 204 198 199 204 199 193 198 202 202 199 200 194 185 183 184 174 166 158 152 161 168 156 147 150 199 154 155 110 67 43 29 12 6 356 343 333 339 354 339 7 330 213 179 160 149 139 115 100 75 53
28 22 19 15 13 11 8 360 354 4 6 11 6 357 359 1 4 9 359 358 358 3 9 5 7 23 22 359 310 246 225 218 213 214 220 215 210 210 212 210 204 206 208 203 203 202 183 177 174 171 169 165 135 145 149 148 136 134 167 185 141 108 98 83 58 32 19 23 18 1 7 29 32 46 53 35 21 143 139 127 115 108 98 82 67
27 21 17 12 9 8 6 1 2 9 7 4 357 354 352 354 2 3 359 358 355 1 360 354 352 353 356 12 334 288 249 236 224 223 222 220 214 218 217 181 230 239 215 204 200 190 184 178 171 172 172 152 128 149 147 138 137 154 193 141 130 126 116 109 86 83 78 55 36 22 47 57 69 68 44 67 59 77 125 125 121 115 111 109 101
24 19 18 14 10 3 5 5 1 10 9 359 356 353 347 348 353 352 353 352 358 358 356 352 347 344 340 339 350 319 272 219 222 221 228 228 215 207 206 175 200 196 260 252 220 173 172 178 178 177 171 149 146 144 146 141 154 183 202 148 152 139 130 127 120 94 87 77 54 33 27 80 83 77 74 80 66 135 126 123 127 130 133 121 109
17 14 7 4 4 356 354 358 0 2 360 355 354 350 349 344 341 342 339 342 351 350 348 343 337 335 331 332 331 336 327 273 202 224 234 236 218 212 198 183 195 185 191 186 187 178 163 140 133 144 146 141 136 144 151 153 168 183 187 150 150 140 127 121 115 96 80 84 75 53 42 52 71 80 71 69 55 90 120 129 136 136 127 120 115
7 8 0 349 348 348 350 353 351 350 344 347 349 345 341 333 332 331 328 334 339 335 333 329 333 331 328 327 327 327 334 327 305 158 229 239 219 190 179 183 183 184 178 175 170 165 155 152 142 150 148 137 132 137 156 163 166 169 176 159 157 152 139 130 115 118 108 93 87 82 66 61 79 78 75 69 58 52 89 107 123 131 136 130 140
0 353 347 342 343 343 339 337 338 338 339 337 339 335 328 325 322 316 319 329 330 329 329 331 329 326 328 330 328 326 324 331 323 296 148 179 217 188 161 154 142 128 125 143 150 152 135 126 130 135 124 116 125 141 154 166 156 164 171 177 161 146 139 139 137 132 127 120 107 91 89 66 78 76 75 71 69 59 57 84 76 91 68 87 118
345 331 338 339 332 331 330 332 334 334 333 334 334 331 321 322 315 304 307 320 324 324 324 326 326 323 324 323 325 325 320 320 356 318 290 170 190 216 203 147 139 137 126 121 157 140 115 106 100 100 105 115 110 118 143 166 168 168 174 194 168 153 149 146 142 131 126 121 114 115 107 90 87 83 78 75 68 61 49 72 64 76 86 96 101
344 342 344 340 331 329 330 328 327 327 328 326 325 317 313 309 300 302 310 314 316 313 316 317 317 315 315 316 318 320 317 311 295 263 298 282 172 192 188 157 128 125 126 121 73 12 78 105 112 111 112 111 125 131 136 151 163 161 153 174 144 141 167 156 144 140 129 120 115 109 103 95 91 87 85 83 83 88 82 85 97 92 89 109 171
337 333 334 333 325 325 322 324 324 325 323 319 315 309 305 302 296 304 306 308 306 307 307 304 303 304 306 308 312 313 314 308 294 284 244 245 259 251 208 194 167 150 146 136 157 168 164 145 141 134 128 129 118 125 100 113 138 144 141 142 140 144 160 130 130 128 123 123 128 122 113 110 100 96 88 79 66 63 86 97 98 103 121 164 15
329 328 330 327 324 322 320 319 323 322 322 316 310 301 296 289 293 305 305 306 305 303 299 294 292 292 296 300 302 301 302 304 301 286 273 251 204 208 215 210 211 173 159 159 160 173 165 154 148 151 152 143 137 117 121 104 127 143 142 135 130 126 119 113 107 110 116 105 94 106 117 113 108 104 105 102 89 80 82 85 87 103 238 18 6
327 327 333 328 321 318 316 315 315 315 311 308 302 297 292 292 298 297 297 297 298 296 292 287 287 285 284 289 292 293 289 289 290 289 278 263 235 199 204 194 229 234 193 162 159 170 163 158 159 152 146 146 141 137 139 138 149 132 120 115 117 115 102 86 89 94 97 107 114 112 112 117 120 125 123 103 98 95 92 95 95 297 22 18 347
329 329 327 324 323 317 316 315 312 313 310 306 301 296 292 293 292 293 292 291 289 286 283 280 276 276 277 273 274 279 288 290 284 284 276 267 256 229 207 190 197 202 214 216 168 169 169 164 156 149 141 138 154 162 161 160 161 145 133 125 110 102 106 107 108 119 120 117 117 116 97 84 88 79 83 96 112 148 149 141 101 55 37 8 358
325 324 325 320 318 315 313 313 311 312 310 309 305 302 299 296 293 290 288 285 281 277 277 276 276 274 270 268 266 267 274 276 272 267 271 270 253 290 278 216 196 191 188 195 210 195 175 167 149 137 142 155 162 169 167 160 156 144 137 134 127 135 141 140 133 133 128 119 115 112 121 129 131 131 134 133 118 99 97 95 53 58 55 67 90
323 323 321 317 315 313 312 311 309 310 309 306 303 301 300 296 292 288 284 280 278 277 275 274 275 271 265 258 256 259 257 263 270 264 217 228 250 212 224 250 314 7 40 27 259 223 199 176 168 165 153 151 146 163 186 174 156 149 146 144 149 149 145 142 127 122 120 127 134 140 140 144 145 140 142 143 135 132 100 102 99 9 26 342 321
319 316 314 312 311 310 309 307 306 306 304 302 301 300 299 298 295 292 286 280 277 277 276 273 269 265 265 261 253 247 241 241 248 253 231 158 97 177 255 247 263 248 177 146 143 309 334 258 220 245 189 157 182 188 141 142 146 146 143 135 129 128 123 121 130 133 135 141 150 150 152 150 154 162 161 154 144 129 125 116 104 90 304 343 337
317 316 315 315 314 312 309 305 304 303 301 300 297 296 294 293 292 288 283 278 275 272 271 271 268 261 260 266 268 261 248 241 244 243 231 207 170 124 89 91 234 217 213 198 188 170 183 216 195 189 175 13 49 115 141 153 150 142 130 122 122 123 123 130 138 132 141 147 152 154 148 151 151 161 155 122 107 117 95 58 35 346 331 317 308